Home   Weather   Vechta   Past weeks

Flag for Germany Past Weather in Vechta, Lower Saxony, Germany — Yesterday and Last 2 Weeks

Now
34 °F

Fog.


Feels Like: 34 °F
Forecast: 21 / 26 °F
Wind: No wind

Location: Bremen Airport

Current Time: Jan 21, 2017 at 7:35:50 am

Latest Report: Jan 21, 2017 at 6:50 am


Visibility: 3 mi

Pressure: 30.51 "Hg

Humidity: 93%

Dew Point: 32 °F

Location of VechtaLocation

Past Weather in Vechta — Graph

°F

Vechta Temperature Yesterday

Maximum temperature yesterday: 34 °F (at 1:50 pm)
Minimum temperature yesterday: 19 °F (at 1:50 am)
Average temperature yesterday: 28 °F

High & Low Weather Summary for the Past Weeks

 TemperatureHumidityPressure
High45 °F (Jan 11, 2:20 pm)100% (Jan 7, 11:50 am)30.77 "Hg (Jan 7, 11:50 am)
Low14 °F (Jan 6, 6:50 am)59% (Jan 6, 12:50 pm)29.00 "Hg (Jan 13, 3:50 am)
Average31 °F90%30.17 "Hg
* Reported Jan 6 6:20 am — Jan 21 6:20 am, Vechta, Weather by CustomWeather, © 2017

Note: Actual official high and low records may vary slightly from our data, if they occured in-between our weather recording intervals... More about our weather records

Advertising

Vechta Weather History for the Previous 24 Hours

Scroll right to see more
 ConditionsComfort  
Time TempWeatherWind HumidityBarometerVisibility
6:20 am
Sat, Jan 21
34 °FFog.No wind93%30.51 "Hg3 mi
5:50 am34 °FFog.1 mph93%30.51 "Hg3 mi
5:20 am34 °FFog.2 mph93%30.51 "Hg3 mi
4:50 am32 °FIce fog.2 mph100%30.51 "Hg3 mi
4:20 am32 °FIce fog.2 mph100%30.51 "Hg3 mi
3:50 am32 °FIce fog.No wind100%30.51 "Hg3 mi
3:20 am32 °FDrizzle. Mostly cloudy.No wind100%30.51 "Hg3 mi
2:50 am34 °FDrizzle. Low clouds.No wind93%30.54 "Hg5 mi
2:20 am32 °FDrizzle. Low clouds.No wind100%30.54 "Hg5 mi
1:50 am34 °FDrizzle. Low clouds.No wind93%30.54 "Hg5 mi
1:20 am34 °FLow clouds.No wind93%30.54 "Hg6 mi
12:50 am34 °FLow clouds.No wind93%30.54 "Hg6 mi
12:20 am34 °FOvercast.No wind93%30.54 "Hg6 mi
11:50 pm
Fri, Jan 20
34 °FOvercast.2 mph87%30.54 "Hg6 mi
11:20 pm34 °FMostly cloudy.No wind93%30.57 "Hg6 mi
10:50 pm34 °FMostly cloudy.No wind87%30.57 "Hg6 mi
10:20 pm34 °FMostly cloudy.No wind87%30.57 "Hg6 mi
9:50 pm34 °FDrizzle. Mostly cloudy.No wind87%30.57 "Hg6 mi
9:20 pm34 °FMostly cloudy.No wind87%30.57 "Hg6 mi
8:50 pm34 °FMostly cloudy.No wind87%30.57 "Hg6 mi
8:20 pm34 °FMostly cloudy.No wind87%30.57 "Hg5 mi
7:50 pm34 °FMostly cloudy.No wind87%30.57 "Hg5 mi
7:20 pm32 °FPassing clouds.1 mph93%30.57 "Hg5 mi
6:50 pm32 °FPassing clouds.No wind93%30.57 "HgN/A
6:20 pm34 °FPassing clouds.No wind87%30.57 "HgN/A
5:50 pm34 °FPassing clouds.1 mph87%30.57 "HgN/A
5:20 pm34 °FPassing clouds.1 mph87%30.57 "HgN/A
4:50 pm34 °FPassing clouds.1 mph87%30.57 "HgN/A
4:20 pm34 °FDrizzle. Partly sunny.1 mph87%30.57 "HgN/A
3:50 pm34 °FDrizzle. Broken clouds.No wind81%30.57 "HgN/A
3:20 pm34 °FPartly sunny.1 mph81%30.57 "HgN/A
2:50 pm34 °FPartly sunny.1 mph81%30.57 "HgN/A
2:20 pm34 °FPartly sunny.1 mph81%30.57 "HgN/A
1:50 pm34 °FOvercast.1 mph75%30.57 "HgN/A
1:20 pm32 °FOvercast.No wind80%30.60 "HgN/A
12:50 pm32 °FOvercast.2 mph75%30.60 "HgN/A
12:20 pm32 °FOvercast.No wind75%30.60 "HgN/A
11:50 am30 °FPartly sunny.2 mph75%30.60 "HgN/A
11:20 am30 °FPartly sunny.No wind80%30.63 "HgN/A
10:50 am28 °FPartly sunny.No wind80%30.63 "HgN/A
10:20 am27 °FPartly sunny.No wind86%30.63 "HgN/A
9:50 am27 °FPartly sunny.2 mph86%30.63 "HgN/A
9:20 am25 °FPartly sunny.3 mph86%30.63 "HgN/A
8:50 am23 °FPartly sunny.2 mph93%30.63 "HgN/A
8:20 am21 °FPartly cloudy.2 mph93%30.63 "Hg5 mi
7:50 am21 °FPassing clouds.No wind93%30.60 "Hg5 mi
7:20 am19 °FClear.1 mph100%30.60 "Hg10 mi
Weather by CustomWeather, © 2017

See weather overviewHow to use our weather pages